Location: Ashtead
(51.3000°N, 0.3000°W)
Time: 04:30:12
(UTC+00:00)

Cosmos 44 - Pass Details

Date: 26 September 2023
Orbit: 570 x 788 km, 65.1° (Epoch: 28 November)

Event Time Altitude Azimuth Distance (km) Brightness Sun altitude
Exits shadow 04:37:36 18° 263° (W) 1,772 4.7 -12.5°
Maximum altitude 04:41:04 40° 325° (NW) 1,108 4.2 -12.0°
Drops below altitude 10° 04:46:07 10° 35° (NE) 2,334 6.7 -11.2°
Sets 04:48:44 0° 42° (NE) 3,280 7.7 -10.8°
